Date String (YYYY-MM-DD hh:mm:ss) UTC,Instrument flags,Ambient pressure (hPa),Sample flow (lpm),Bypass flow (lpm),Sample temperature (°C),Ambient temperature (°C),ASC tube jacket temperature (°C),LED temperature (°C),Box temperature (°C),Sample RH (%),Span deviation,Mass concentration (μg/m³),Mass concentration (μg/m³),Mass concentration (μg/m³)
DateTimeUTC,F1_M11,P_M11,Q1_M11,Q2_M11,T1_M11,T2_M11,T3_M11,T4_M11,T5_M11,U1_M11,ZSPAN_M11,X0_M11,X2_M11,X1_M11
2023-01-09 06:00:00,,0824.2,4.99,0.00,22.2,20.8,00.0,31.2,23.9,09.9,0000.0,0003.66,0001.58,0001.20
2023-01-09 06:01:00,,0824.2,5.00,0.00,22.2,20.8,00.0,31.1,23.9,10.1,0000.0,0003.35,0001.53,0001.15
2023-01-09 06:02:00,,0824.2,5.00,0.00,22.2,20.8,00.0,31.1,23.8,10.3,0000.0,0003.35,0001.52,0001.12
2023-01-09 06:03:00,,0824.3,5.00,0.00,22.2,20.8,00.0,31.1,23.8,10.0,0000.0,0003.35,0001.51,0001.10
2023-01-09 06:04:00,,0824.3,5.00,0.00,22.2,20.8,00.0,31.1,23.8,10.0,0000.0,0003.41,0001.47,0001.07
2023-01-09 06:05:00,,0824.2,5.00,0.00,22.2,20.8,00.0,31.1,23.8,09.9,0000.0,0003.77,0001.43,0001.06
2023-01-09 06:06:00,,0824.2,5.00,0.00,22.2,20.8,00.0,31.1,23.9,09.8,0000.0,0003.64,0001.38,0001.05
2023-01-09 06:07:00,,0824.2,5.00,0.00,22.2,20.8,00.0,31.1,23.8,09.6,0000.0,0003.56,0001.35,0001.03
2023-01-09 06:08:00,,0824.2,5.00,0.00,22.1,20.7,00.0,31.1,23.8,09.6,0000.0,0003.55,0001.28,0001.02
2023-01-09 06:09:00,,0824.2,4.99,0.00,22.1,20.7,00.0,31.1,23.7,09.7,0000.0,0002.65,0001.22,0001.00
2023-01-09 06:10:00,,0824.2,5.00,0.00,22.1,20.7,00.0,31.1,23.7,09.5,0000.0,0002.34,0001.20,0000.99
2023-01-09 06:11:00,,0824.2,5.00,0.00,22.1,20.7,00.0,31.0,23.7,09.6,0000.0,0002.39,0001.19,0000.99
2023-01-09 06:12:00,,0824.3,5.00,0.00,22.1,20.7,00.0,31.0,23.7,09.7,0000.0,0002.50,0001.21,0000.99
2023-01-09 06:13:00,,0824.3,5.00,0.00,22.1,20.6,00.0,31.0,23.6,09.6,0000.0,0002.48,0001.20,0000.98
2023-01-09 06:14:00,,0824.3,5.01,0.00,22.1,20.6,00.0,31.0,23.6,09.8,0000.0,0002.45,0001.19,0000.97
2023-01-09 06:15:00,,0824.3,5.00,0.00,22.0,20.6,00.0,31.0,23.6,09.9,0000.0,0002.33,0001.19,0000.97
2023-01-09 06:16:00,,0824.3,5.00,0.00,22.0,20.6,00.0,31.0,23.6,09.9,0000.0,0001.86,0001.17,0000.96
2023-01-09 06:17:00,,0824.1,4.99,0.00,22.0,20.6,00.0,31.0,23.6,10.2,0000.0,0001.90,0001.16,0000.93
2023-01-09 06:18:00,,0824.1,5.00,0.00,22.0,20.5,00.0,31.0,23.7,10.6,0000.0,0002.04,0001.16,0000.91
2023-01-09 06:19:00,,0823.8,5.01,0.00,22.0,20.4,00.0,31.0,23.6,10.5,0000.0,0002.02,0001.14,0000.89
2023-01-09 06:20:00,,0824.0,5.01,0.00,22.0,20.9,00.0,30.9,23.8,10.7,0000.0,0001.98,0001.13,0000.88
2023-01-09 06:21:00,,0823.6,4.98,0.00,22.1,22.0,00.0,30.9,24.1,10.7,0000.0,0002.56,0001.14,0000.86
2023-01-09 06:22:00,,0823.8,5.00,0.00,22.3,22.6,00.0,30.9,24.4,10.4,0000.0,0007.20,0001.20,0000.85
2023-01-09 06:23:00,,0824.3,5.02,0.00,22.3,22.4,00.0,31.0,24.4,09.7,0000.0,0007.05,0001.16,0000.83
2023-01-09 06:24:00,,0824.3,4.99,0.00,22.4,22.0,00.0,31.0,24.3,09.5,0000.0,0007.01,0001.15,0000.83
2023-01-09 06:25:00,,0824.1,4.99,0.00,22.4,21.7,00.0,31.1,24.2,10.0,0000.0,0006.97,0001.14,0000.82
2023-01-09 06:26:00,,0824.0,5.01,0.00,22.3,21.5,00.0,31.1,24.1,10.3,0000.0,0006.93,0001.09,0000.80
2023-01-09 06:27:00,,0824.1,5.00,0.00,22.3,21.2,00.0,31.1,24.0,09.9,0000.0,0006.96,0001.05,0000.78
2023-01-09 06:28:00,,0824.1,5.01,0.00,22.3,21.0,00.0,31.1,24.0,10.0,0000.0,0006.97,0001.05,0000.77
2023-01-09 06:29:00,,0824.0,5.00,0.00,22.3,20.9,00.0,31.1,24.0,10.1,0000.0,0006.83,0001.03,0000.76
2023-01-09 06:30:00,,0823.9,4.98,0.00,22.2,20.8,00.0,31.1,24.0,10.2,0000.0,0006.72,0001.00,0000.76
2023-01-09 06:31:00,,0823.8,5.00,0.00,22.2,20.7,00.0,31.1,23.9,10.3,0000.0,0006.75,0001.02,0000.76
2023-01-09 06:32:00,,0823.9,5.00,0.00,22.2,20.6,00.0,31.1,23.8,10.3,0000.0,0005.67,0001.00,0000.76
2023-01-09 06:33:00,,0823.9,5.00,0.00,22.1,20.5,00.0,31.1,23.8,10.3,0000.0,0001.53,0000.96,0000.77
2023-01-09 06:34:00,,0823.9,5.01,0.00,22.1,20.5,00.0,31.0,23.7,10.4,0000.0,0001.59,0000.98,0000.77
2023-01-09 06:35:00,,0823.8,5.00,0.00,22.1,20.4,00.0,31.0,23.7,10.7,0000.0,0001.61,0000.96,0000.76
2023-01-09 06:36:00,,0823.9,5.00,0.00,22.1,20.7,00.0,31.0,23.8,10.9,0000.0,0001.70,0000.97,0000.75
2023-01-09 06:37:00,,0824.0,5.00,0.00,22.2,21.7,00.0,31.0,24.1,11.2,0000.0,0001.67,0000.97,0000.75
2023-01-09 06:38:00,,0824.0,4.99,0.00,22.3,22.7,00.0,31.0,24.3,11.1,0000.0,0001.57,0000.98,0000.76
2023-01-09 06:39:00,,0824.1,4.99,0.00,22.4,22.8,00.0,31.0,24.5,10.8,0000.0,0001.52,0000.98,0000.76
2023-01-09 06:40:00,,0824.0,5.00,0.00,22.4,22.4,00.0,31.1,24.4,10.5,0000.0,0002.43,0000.98,0000.76
2023-01-09 06:41:00,,0823.8,4.99,0.00,22.4,22.0,00.0,31.1,24.3,11.0,0000.0,0002.67,0000.99,0000.77
2023-01-09 06:42:00,,0823.7,5.00,0.00,22.4,21.6,00.0,31.1,24.2,10.5,0000.0,0002.69,0001.00,0000.77
2023-01-09 06:43:00,,0823.7,5.00,0.00,22.4,21.3,00.0,31.1,24.1,10.1,0000.0,0002.76,0001.03,0000.78
2023-01-09 06:44:00,,0823.7,5.00,0.00,22.3,21.1,00.0,31.1,24.0,10.3,0000.0,0002.74,0001.01,0000.77
2023-01-09 06:45:00,,0823.7,5.00,0.00,22.3,20.9,00.0,31.1,23.9,10.3,0000.0,0002.67,0000.99,0000.76
2023-01-09 06:46:00,,0823.6,4.99,0.00,22.3,20.8,00.0,31.1,23.9,10.5,0000.0,0002.63,0000.98,0000.76
2023-01-09 06:47:00,,0823.7,5.00,0.00,22.2,20.7,00.0,31.1,23.8,10.4,0000.0,0002.50,0000.95,0000.76
2023-01-09 06:48:00,,0823.8,5.01,0.00,22.2,20.6,00.0,31.1,23.8,10.2,0000.0,0003.39,0000.96,0000.77
2023-01-09 06:49:00,,0823.9,5.00,0.00,22.1,20.5,00.0,31.1,23.7,10.0,0000.0,0003.79,0000.94,0000.76
2023-01-09 06:50:00,,0824.0,5.01,0.00,22.1,20.5,00.0,31.0,23.7,10.3,0000.0,0003.74,0000.91,0000.76
2023-01-09 06:51:00,,0824.1,5.00,0.00,22.1,20.5,00.0,31.1,23.7,10.9,0000.0,0002.96,0000.92,0000.76
2023-01-09 06:52:00,,0824.1,5.00,0.00,22.1,20.5,00.0,31.1,23.7,11.0,0000.0,0002.58,0000.91,0000.76
2023-01-09 06:53:00,,0824.1,5.00,0.00,22.0,20.5,00.0,31.0,23.6,10.9,0000.0,0002.89,0000.88,0000.76
2023-01-09 06:54:00,,0824.2,4.99,0.00,22.0,20.5,00.0,31.0,23.6,10.9,0000.0,0003.03,0000.90,0000.75
2023-01-09 06:55:00,,0824.3,4.99,0.00,22.0,20.5,00.0,31.0,23.7,11.0,0000.0,0003.05,0000.89,0000.75
2023-01-09 06:56:00,,0824.2,4.99,0.00,22.0,20.5,00.0,31.0,23.7,10.6,0000.0,0003.13,0000.94,0000.77
2023-01-09 06:57:00,,0824.1,5.00,0.00,22.0,20.5,00.0,31.0,23.7,10.1,0000.0,0003.24,0001.00,0000.79
2023-01-09 06:58:00,,0824.0,5.00,0.00,22.0,20.8,00.0,31.0,23.8,10.8,0000.0,0003.27,0001.01,0000.79
2023-01-09 06:59:00,,0824.2,5.01,0.00,22.1,21.8,00.0,30.9,24.0,10.7,0000.0,0002.68,0001.04,0000.79
